| time (UTC) | temp C | wind direction | speed KPH | gust KPH | rain 1hr cm | rain 24hr cm | rain mn cm | humidity % | barometer mb |
| 20260510000253 | 12 | 29 | 3.2 | 3.2 | 0.00 | 0.00 | 0.00 | 57 | 1028.6 |
| 20260509235750 | 12 | 62 | 3.2 | 3.2 | 0.00 | 0.00 | 0.00 | 56 | 1028.7 |
| 20260509235246 | 12 | 18 | 3.2 | 3.2 | 0.00 | 0.00 | 0.00 | 56 | 1028.7 |
| 20260509234742 | 12 | 6 | 1.6 | 1.6 | 0.00 | 0.00 | 0.00 | 56 | 1028.9 |
| 20260509234239 | 12 | 18 | 3.2 | 4.8 | 0.00 | 0.00 | 0.00 | 56 | 1028.9 |
| 20260509233737 | 12 | 13 | 3.2 | 3.2 | 0.00 | 0.00 | 0.00 | 56 | 1028.6 |
| 20260509233234 | 12 | 27 | 3.2 | 3.2 | 0.00 | 0.00 | 0.00 | 56 | 1029.0 |
| 20260509232730 | 12 | 10 | 1.6 | 3.2 | 0.00 | 0.00 | 0.00 | 56 | 1028.9 |
| 20260509232227 | 12 | 30 | 4.8 | 4.8 | 0.00 | 0.00 | 0.00 | 55 | 1028.9 |
| 20260509231724 | 12 | 355 | 4.8 | 4.8 | 0.00 | 0.00 | 0.00 | 56 | 1029.0 |
| 20260509231221 | 12 | 13 | 4.8 | 4.8 | 0.00 | 0.00 | 0.00 | 56 | 1029.0 |
| 20260509230719 | 12 | 8 | 3.2 | 4.8 | 0.00 | 0.00 | 0.00 | 57 | 1029.0 |
| 20260509230215 | 12 | 21 | 4.8 | 6.4 | 0.00 | 0.00 | 0.00 | 57 | 1029.0 |
| 20260509225711 | 12 | 11 | 4.8 | 4.8 | 0.00 | 0.00 | 0.00 | 56 | 1028.9 |
| 20260509225207 | 12 | 21 | 3.2 | 4.8 | 0.00 | 0.00 | 0.00 | 56 | 1029.0 |
| 20260509224702 | 12 | 35 | 4.8 | 4.8 | 0.00 | 0.00 | 0.00 | 57 | 1029.0 |
| 20260509224200 | 12 | 26 | 6.4 | 9.7 | 0.00 | 0.00 | 0.00 | 57 | 1029.2 |
| 20260509223656 | 12 | 19 | 3.2 | 4.8 | 0.00 | 0.00 | 0.00 | 57 | 1029.2 |
| 20260509223148 | 12 | 41 | 1.6 | 1.6 | 0.00 | 0.00 | 0.00 | 58 | 1029.3 |
| 20260509222645 | 12 | 53 | 3.2 | 3.2 | 0.00 | 0.00 | 0.00 | 58 | 1029.2 |
| 20260509222140 | 12 | 21 | 3.2 | 3.2 | 0.00 | 0.00 | 0.00 | 59 | 1029.4 |
| 20260509221636 | 12 | 21 | 4.8 | 4.8 | 0.00 | 0.00 | 0.00 | 58 | 1029.4 |
| 20260509221132 | 12 | 26 | 1.6 | 1.6 | 0.00 | 0.00 | 0.00 | 58 | 1029.3 |
| 20260509220628 | 12 | 32 | 3.2 | 4.8 | 0.00 | 0.00 | 0.00 | 58 | 1029.2 |
| 20260509220124 | 12 | 40 | 1.6 | 3.2 | 0.00 | 0.00 | 0.00 | 58 | 1029.7 |
| 20260509215620 | 12 | 42 | 0.0 | 1.6 | 0.00 | 0.00 | 0.00 | 59 | 1029.7 |
| 20260509215117 | 12 | 15 | 0.0 | 1.6 | 0.00 | 0.00 | 0.00 | 59 | 1029.8 |
| 20260509214614 | 11 | 20 | 1.6 | 1.6 | 0.00 | 0.00 | 0.00 | 62 | 1029.8 |
| 20260509214111 | 10 | 59 | 0.0 | 0.0 | 0.00 | 0.00 | 0.00 | 65 | 1030.0 |
| 20260509213602 | 10 | 199 | 0.0 | 0.0 | 0.00 | 0.00 | 0.00 | 70 | 1029.9 |
| 20260509213058 | 10 | 219 | 0.0 | 0.0 | 0.00 | 0.00 | 0.00 | 71 | 1029.8 |
| 20260509212555 | 11 | 220 | 0.0 | 0.0 | 0.00 | 0.00 | 0.00 | 67 | 1029.8 |
| 20260509212052 | 11 | 204 | 0.0 | 0.0 | 0.00 | 0.00 | 0.00 | 70 | 1030.0 |
| 20260509211548 | 10 | 207 | 0.0 | 0.0 | 0.00 | 0.00 | 0.00 | 72 | 1029.8 |
| 20260509211045 | 11 | 207 | 0.0 | 0.0 | 0.00 | 0.00 | 0.00 | 72 | 1029.9 |
| 20260509210541 | 11 | 210 | 0.0 | 0.0 | 0.00 | 0.00 | 0.00 | 69 | 1030.0 |
| 20260509210037 | 11 | 186 | 0.0 | 0.0 | 0.00 | 0.00 | 0.00 | 67 | 1030.0 |
| 20260509205532 | 11 | 197 | 0.0 | 0.0 | 0.00 | 0.00 | 0.00 | 67 | 1029.9 |
| 20260509205028 | 11 | 247 | 0.0 | 0.0 | 0.00 | 0.00 | 0.00 | 69 | 1029.9 |
| 20260509204524 | 10 | 247 | 0.0 | 0.0 | 0.00 | 0.00 | 0.00 | 72 | 1029.9 |
| 20260509204021 | 10 | 245 | 0.0 | 0.0 | 0.00 | 0.00 | 0.00 | 75 | 1029.8 |
| 20260509203516 | 10 | 224 | 0.0 | 0.0 | 0.00 | 0.00 | 0.00 | 76 | 1029.9 |
| 20260509203015 | 10 | 234 | 0.0 | 0.0 | 0.00 | 0.00 | 0.00 | 76 | 1030.1 |
| 20260509202509 | 10 | 244 | 0.0 | 0.0 | 0.00 | 0.00 | 0.00 | 75 | 1030.0 |
| 20260509202005 | 11 | 230 | 0.0 | 0.0 | 0.00 | 0.00 | 0.00 | 74 | 1030.3 |
| 20260509201500 | 11 | 235 | 0.0 | 0.0 | 0.00 | 0.00 | 0.00 | 72 | 1030.0 |
| 20260509200958 | 11 | 207 | 0.0 | 0.0 | 0.00 | 0.00 | 0.00 | 69 | 1029.9 |
| 20260509200452 | 12 | 215 | 0.0 | 0.0 | 0.00 | 0.00 | 0.00 | 67 | 1030.0 |
| 20260509195949 | 12 | 215 | 0.0 | 0.0 | 0.00 | 0.00 | 0.00 | 65 | 1030.3 |
| 20260509195445 | 13 | 199 | 0.0 | 0.0 | 0.00 | 0.00 | 0.00 | 60 | 1030.5 |
| 20260509194944 | 13 | 58 | 0.0 | 0.0 | 0.00 | 0.00 | 0.00 | 60 | 1030.4 |
| 20260509194440 | 13 | 45 | 1.6 | 1.6 | 0.00 | 0.00 | 0.00 | 59 | 1030.4 |
| 20260509193937 | 13 | 224 | 1.6 | 1.6 | 0.00 | 0.00 | 0.00 | 60 | 1030.4 |
| 20260509193437 | 13 | 169 | 0.0 | 0.0 | 0.00 | 0.00 | 0.00 | 60 | 1030.5 |
| 20260509192933 | 13 | 40 | 1.6 | 1.6 | 0.00 | 0.00 | 0.00 | 59 | 1030.5 |
| 20260509192430 | 13 | 255 | 0.0 | 0.0 | 0.00 | 0.00 | 0.00 | 62 | 1030.5 |
| 20260509191925 | 13 | 212 | 0.0 | 0.0 | 0.00 | 0.00 | 0.00 | 59 | 1030.5 |
| 20260509191420 | 13 | 289 | 0.0 | 0.0 | 0.00 | 0.00 | 0.00 | 60 | 1030.4 |
| 20260509190917 | 13 | 299 | 1.6 | 1.6 | 0.00 | 0.00 | 0.00 | 60 | 1030.6 |
| 20260509190414 | 13 | 272 | 0.0 | 1.6 | 0.00 | 0.00 | 0.00 | 61 | 1030.7 |
| 20260509185912 | 13 | 261 | 0.0 | 1.6 | 0.00 | 0.00 | 0.00 | 61 | 1030.4 |
| 20260509185409 | 13 | 246 | 0.0 | 0.0 | 0.00 | 0.00 | 0.00 | 60 | 1030.5 |
| 20260509184905 | 13 | 277 | 1.6 | 1.6 | 0.00 | 0.00 | 0.00 | 60 | 1030.7 |
| 20260509184402 | 13 | 4 | 1.6 | 1.6 | 0.00 | 0.00 | 0.00 | 59 | 1030.8 |
| 20260509183859 | 13 | 8 | 0.0 | 1.6 | 0.00 | 0.00 | 0.00 | 59 | 1030.6 |
| 20260509183354 | 13 | 33 | 1.6 | 3.2 | 0.00 | 0.00 | 0.00 | 58 | 1030.6 |
| 20260509182850 | 13 | 7 | 3.2 | 3.2 | 0.00 | 0.00 | 0.00 | 58 | 1030.6 |
| 20260509182347 | 13 | 15 | 1.6 | 3.2 | 0.00 | 0.00 | 0.00 | 57 | 1030.5 |
| 20260509181845 | 13 | 29 | 1.6 | 1.6 | 0.00 | 0.00 | 0.00 | 57 | 1030.6 |
| 20260509181342 | 13 | 355 | 1.6 | 1.6 | 0.00 | 0.00 | 0.00 | 58 | 1030.5 |
| 20260509180839 | 13 | 23 | 1.6 | 3.2 | 0.00 | 0.00 | 0.00 | 60 | 1030.6 |
| 20260509180335 | 13 | 40 | 1.6 | 3.2 | 0.00 | 0.00 | 0.00 | 61 | 1030.4 |
| 20260509175832 | 13 | 355 | 1.6 | 3.2 | 0.00 | 0.00 | 0.00 | 60 | 1030.5 |
| 20260509175328 | 13 | 25 | 1.6 | 3.2 | 0.00 | 0.00 | 0.00 | 59 | 1030.4 |
| 20260509174824 | 13 | 57 | 1.6 | 1.6 | 0.00 | 0.00 | 0.00 | 57 | 1030.1 |
| 20260509174320 | 13 | 197 | 0.0 | 0.0 | 0.00 | 0.00 | 0.00 | 61 | 1030.3 |
| 20260509173816 | 13 | 198 | 0.0 | 0.0 | 0.00 | 0.00 | 0.00 | 61 | 1030.3 |
| 20260509173312 | 13 | 246 | 0.0 | 0.0 | 0.00 | 0.00 | 0.00 | 59 | 1030.3 |
| 20260509172808 | 14 | 251 | 0.0 | 0.0 | 0.00 | 0.00 | 0.00 | 61 | 1030.4 |
| 20260509172306 | 14 | 251 | 0.0 | 0.0 | 0.00 | 0.00 | 0.00 | 57 | 1030.1 |
| 20260509171800 | 15 | 227 | 0.0 | 0.0 | 0.00 | 0.00 | 0.00 | 57 | 1030.3 |
| 20260509171251 | 15 | 253 | 0.0 | 0.0 | 0.00 | 0.00 | 0.00 | 52 | 1030.1 |
| 20260509170747 | 15 | 248 | 0.0 | 1.6 | 0.00 | 0.00 | 0.00 | 52 | 1030.1 |
| 20260509170243 | 15 | 256 | 1.6 | 1.6 | 0.00 | 0.00 | 0.00 | 51 | 1030.3 |
| 20260509165742 | 15 | 334 | 0.0 | 1.6 | 0.00 | 0.00 | 0.00 | 51 | 1030.0 |
| 20260509165238 | 15 | 318 | 3.2 | 3.2 | 0.00 | 0.00 | 0.00 | 51 | 1030.1 |
| 20260509164734 | 15 | 326 | 0.0 | 1.6 | 0.00 | 0.00 | 0.00 | 51 | 1030.0 |
| 20260509164229 | 15 | 266 | 0.0 | 1.6 | 0.00 | 0.00 | 0.00 | 51 | 1030.0 |
| 20260509163727 | 16 | 273 | 1.6 | 1.6 | 0.00 | 0.00 | 0.00 | 50 | 1029.8 |
| 20260509163223 | 16 | 288 | 1.6 | 1.6 | 0.00 | 0.00 | 0.00 | 49 | 1029.9 |
| 20260509162721 | 16 | 252 | 0.0 | 0.0 | 0.00 | 0.00 | 0.00 | 50 | 1030.0 |
| 20260509162216 | 16 | 44 | 0.0 | 0.0 | 0.00 | 0.00 | 0.00 | 48 | 1029.7 |
| 20260509161712 | 16 | 31 | 1.6 | 1.6 | 0.00 | 0.00 | 0.00 | 48 | 1029.9 |
| 20260509161209 | 16 | 3 | 1.6 | 1.6 | 0.00 | 0.00 | 0.00 | 48 | 1029.8 |
| 20260509160704 | 16 | 293 | 1.6 | 1.6 | 0.00 | 0.00 | 0.00 | 49 | 1029.8 |
| 20260509160200 | 16 | 298 | 1.6 | 1.6 | 0.00 | 0.00 | 0.00 | 48 | 1029.7 |
| 20260509155656 | 16 | 277 | 0.0 | 0.0 | 0.00 | 0.00 | 0.00 | 50 | 1029.6 |
| 20260509155152 | 16 | 303 | 1.6 | 3.2 | 0.00 | 0.00 | 0.00 | 48 | 1029.9 |
| 20260509154648 | 16 | 298 | 1.6 | 1.6 | 0.00 | 0.00 | 0.00 | 48 | 1029.7 |
| 20260509154146 | 16 | 276 | 1.6 | 1.6 | 0.00 | 0.00 | 0.00 | 48 | 1029.6 |
| 20260509153642 | 16 | 286 | 1.6 | 1.6 | 0.00 | 0.00 | 0.00 | 48 | 1029.6 |
| 20260509153139 | 17 | 312 | 3.2 | 3.2 | 0.00 | 0.00 | 0.00 | 47 | 1029.7 |
| 20260509152634 | 17 | 347 | 3.2 | 3.2 | 0.00 | 0.00 | 0.00 | 47 | 1029.7 |
| 20260509152132 | 17 | 343 | 4.8 | 4.8 | 0.00 | 0.00 | 0.00 | 47 | 1029.8 |
| 20260509151628 | 17 | 346 | 4.8 | 6.4 | 0.00 | 0.00 | 0.00 | 46 | 1029.6 |
| 20260509151126 | 18 | 330 | 3.2 | 4.8 | 0.00 | 0.00 | 0.00 | 44 | 1029.6 |
| 20260509150624 | 18 | 347 | 6.4 | 6.4 | 0.00 | 0.00 | 0.00 | 43 | 1029.4 |
| 20260509150122 | 18 | 313 | 1.6 | 3.2 | 0.00 | 0.00 | 0.00 | 43 | 1029.4 |
| 20260509145617 | 18 | 309 | 1.6 | 3.2 | 0.00 | 0.00 | 0.00 | 42 | 1029.6 |
| 20260509145112 | 18 | 348 | 9.7 | 12.9 | 0.00 | 0.00 | 0.00 | 41 | 1029.4 |
| 20260509144610 | 18 | 341 | 3.2 | 4.8 | 0.00 | 0.00 | 0.00 | 42 | 1029.6 |
| 20260509144107 | 19 | 353 | 6.4 | 9.7 | 0.00 | 0.00 | 0.00 | 41 | 1029.4 |
| 20260509143604 | 19 | 312 | 3.2 | 4.8 | 0.00 | 0.00 | 0.00 | 41 | 1029.6 |
| 20260509143102 | 20 | 4 | 4.8 | 6.4 | 0.00 | 0.00 | 0.00 | 40 | 1029.4 |
| 20260509142556 | 20 | 350 | 6.4 | 6.4 | 0.00 | 0.00 | 0.00 | 39 | 1029.8 |
| 20260509142053 | 20 | 300 | 4.8 | 6.4 | 0.00 | 0.00 | 0.00 | 38 | 1029.4 |
| 20260509141549 | 20 | 338 | 6.4 | 9.7 | 0.00 | 0.00 | 0.00 | 38 | 1029.4 |
| 20260509141046 | 20 | 341 | 6.4 | 9.7 | 0.00 | 0.00 | 0.00 | 37 | 1029.6 |
| 20260509140543 | 20 | 348 | 6.4 | 6.4 | 0.00 | 0.00 | 0.00 | 36 | 1029.4 |
| 20260509140041 | 20 | 49 | 4.8 | 6.4 | 0.00 | 0.00 | 0.00 | 36 | 1029.4 |
| 20260509135538 | 20 | 341 | 9.7 | 17.7 | 0.00 | 0.00 | 0.00 | 36 | 1029.6 |
| 20260509135035 | 20 | 314 | 8.0 | 12.9 | 0.00 | 0.00 | 0.00 | 35 | 1029.8 |
| 20260509134526 | 20 | 5 | 9.7 | 11.3 | 0.00 | 0.00 | 0.00 | 36 | 1029.8 |
| 20260509134024 | 20 | 357 | 6.4 | 9.7 | 0.00 | 0.00 | 0.00 | 35 | 1029.4 |
| 20260509133520 | 21 | 350 | 9.7 | 16.1 | 0.00 | 0.00 | 0.00 | 35 | 1029.6 |
| 20260509133018 | 20 | 1 | 3.2 | 4.8 | 0.00 | 0.00 | 0.00 | 35 | 1029.8 |
| 20260509132516 | 20 | 343 | 6.4 | 11.3 | 0.00 | 0.00 | 0.00 | 35 | 1029.6 |
| 20260509132014 | 20 | 330 | 3.2 | 6.4 | 0.00 | 0.00 | 0.00 | 36 | 1029.7 |
| 20260509131510 | 20 | 318 | 6.4 | 6.4 | 0.00 | 0.00 | 0.00 | 35 | 1029.7 |
| 20260509131007 | 20 | 339 | 9.7 | 14.5 | 0.00 | 0.00 | 0.00 | 35 | 1029.6 |
| 20260509130502 | 20 | 43 | 11.3 | 14.5 | 0.00 | 0.00 | 0.00 | 34 | 1029.7 |
| 20260509130000 | 20 | 64 | 9.7 | 12.9 | 0.00 | 0.00 | 0.00 | 35 | 1029.6 |
| 20260509125456 | 20 | 324 | 9.7 | 12.9 | 0.00 | 0.00 | 0.00 | 36 | 1029.8 |
| 20260509124952 | 20 | 340 | 6.4 | 9.7 | 0.00 | 0.00 | 0.00 | 36 | 1029.9 |
| 20260509124449 | 20 | 340 | 16.1 | 20.9 | 0.00 | 0.00 | 0.00 | 36 | 1029.7 |
| 20260509123946 | 20 | 324 | 12.9 | 16.1 | 0.00 | 0.00 | 0.00 | 37 | 1029.9 |
| 20260509123444 | 20 | 20 | 8.0 | 11.3 | 0.00 | 0.00 | 0.00 | 36 | 1030.0 |
| 20260509122939 | 20 | 349 | 12.9 | 16.1 | 0.00 | 0.00 | 0.00 | 37 | 1029.9 |
| 20260509122437 | 20 | 351 | 6.4 | 11.3 | 0.00 | 0.00 | 0.00 | 37 | 1029.8 |
| 20260509121933 | 20 | 308 | 4.8 | 4.8 | 0.00 | 0.00 | 0.00 | 37 | 1029.8 |
| 20260509121430 | 20 | 325 | 9.7 | 11.3 | 0.00 | 0.00 | 0.00 | 37 | 1029.9 |
| 20260509120928 | 20 | 20 | 1.6 | 1.6 | 0.00 | 0.00 | 0.00 | 36 | 1030.1 |
| 20260509120426 | 20 | 19 | 6.4 | 11.3 | 0.00 | 0.00 | 0.00 | 36 | 1029.9 |
| 20260509115924 | 20 | 38 | 8.0 | 11.3 | 0.00 | 0.00 | 0.00 | 36 | 1030.3 |
| 20260509115421 | 20 | 335 | 11.3 | 12.9 | 0.00 | 0.00 | 0.00 | 36 | 1030.5 |
| 20260509114918 | 20 | 324 | 6.4 | 11.3 | 0.00 | 0.00 | 0.00 | 37 | 1030.4 |
| 20260509114416 | 20 | 16 | 9.7 | 12.9 | 0.00 | 0.00 | 0.00 | 37 | 1030.4 |
| 20260509113910 | 20 | 322 | 6.4 | 9.7 | 0.00 | 0.00 | 0.00 | 36 | 1030.4 |
| 20260509113407 | 20 | 346 | 8.0 | 9.7 | 0.00 | 0.00 | 0.00 | 35 | 1030.5 |
| 20260509112904 | 20 | 341 | 8.0 | 11.3 | 0.00 | 0.00 | 0.00 | 35 | 1030.7 |
| 20260509112401 | 20 | 6 | 4.8 | 4.8 | 0.00 | 0.00 | 0.00 | 36 | 1030.4 |
| 20260509111858 | 20 | 326 | 9.7 | 14.5 | 0.00 | 0.00 | 0.00 | 35 | 1030.4 |
| 20260509111354 | 20 | 173 | 8.0 | 12.9 | 0.00 | 0.00 | 0.00 | 35 | 1030.4 |
| 20260509110853 | 19 | 333 | 9.7 | 11.3 | 0.00 | 0.00 | 0.00 | 36 | 1030.7 |
| 20260509110348 | 20 | 358 | 9.7 | 12.9 | 0.00 | 0.00 | 0.00 | 37 | 1030.7 |
| 20260509105847 | 20 | 16 | 3.2 | 6.4 | 0.00 | 0.00 | 0.00 | 37 | 1030.8 |
| 20260509105345 | 20 | 308 | 6.4 | 6.4 | 0.00 | 0.00 | 0.00 | 36 | 1031.1 |
| 20260509104841 | 19 | 295 | 9.7 | 14.5 | 0.00 | 0.00 | 0.00 | 37 | 1030.8 |
| 20260509104337 | 19 | 357 | 4.8 | 4.8 | 0.00 | 0.00 | 0.00 | 38 | 1031.2 |
| 20260509103836 | 18 | 11 | 8.0 | 11.3 | 0.00 | 0.00 | 0.00 | 39 | 1031.3 |
| 20260509103333 | 18 | 1 | 11.3 | 16.1 | 0.00 | 0.00 | 0.00 | 38 | 1031.3 |
| 20260509102831 | 19 | 328 | 6.4 | 6.4 | 0.00 | 0.00 | 0.00 | 39 | 1031.5 |
| 20260509102328 | 18 | 323 | 6.4 | 12.9 | 0.00 | 0.00 | 0.00 | 40 | 1031.4 |
| 20260509101824 | 18 | 324 | 3.2 | 4.8 | 0.00 | 0.00 | 0.00 | 39 | 1031.4 |
| 20260509101320 | 19 | 14 | 3.2 | 3.2 | 0.00 | 0.00 | 0.00 | 40 | 1031.8 |
| 20260509100818 | 19 | 222 | 1.6 | 1.6 | 0.00 | 0.00 | 0.00 | 39 | 1031.6 |
| 20260509100315 | 18 | 232 | 1.6 | 3.2 | 0.00 | 0.00 | 0.00 | 42 | 1031.9 |
| 20260509095812 | 17 | 4 | 4.8 | 4.8 | 0.00 | 0.00 | 0.00 | 42 | 1032.1 |
| 20260509095309 | 18 | 2 | 12.9 | 14.5 | 0.00 | 0.00 | 0.00 | 41 | 1032.2 |
| 20260509094806 | 18 | 355 | 3.2 | 6.4 | 0.00 | 0.00 | 0.00 | 41 | 1032.2 |
| 20260509094303 | 17 | 346 | 4.8 | 11.3 | 0.00 | 0.00 | 0.00 | 41 | 1032.5 |
| 20260509093801 | 17 | 354 | 4.8 | 6.4 | 0.00 | 0.00 | 0.00 | 42 | 1032.5 |
| 20260509093257 | 17 | 37 | 9.7 | 12.9 | 0.00 | 0.00 | 0.00 | 41 | 1032.6 |
| 20260509092756 | 17 | 32 | 8.0 | 12.9 | 0.00 | 0.00 | 0.00 | 42 | 1032.8 |
| 20260509092254 | 17 | 20 | 8.0 | 11.3 | 0.00 | 0.00 | 0.00 | 43 | 1032.7 |
| 20260509091751 | 17 | 1 | 8.0 | 11.3 | 0.00 | 0.00 | 0.00 | 42 | 1032.7 |
| 20260509091248 | 17 | 13 | 8.0 | 9.7 | 0.00 | 0.00 | 0.00 | 43 | 1032.7 |
| 20260509090745 | 16 | 4 | 6.4 | 11.3 | 0.00 | 0.00 | 0.00 | 44 | 1032.8 |
| 20260509090242 | 16 | 17 | 9.7 | 14.5 | 0.00 | 0.00 | 0.00 | 43 | 1033.0 |
| 20260509085740 | 16 | 341 | 6.4 | 9.7 | 0.00 | 0.00 | 0.00 | 42 | 1032.8 |
| 20260509085237 | 16 | 14 | 6.4 | 11.3 | 0.00 | 0.00 | 0.00 | 43 | 1032.9 |
| 20260509084733 | 16 | 350 | 11.3 | 14.5 | 0.00 | 0.00 | 0.00 | 43 | 1033.0 |
| 20260509084230 | 16 | 28 | 12.9 | 16.1 | 0.00 | 0.00 | 0.00 | 45 | 1033.0 |
| 20260509083728 | 16 | 14 | 4.8 | 4.8 | 0.00 | 0.00 | 0.00 | 45 | 1033.4 |
| 20260509083225 | 15 | 6 | 6.4 | 9.7 | 0.00 | 0.00 | 0.00 | 46 | 1033.0 |
| 20260509082721 | 15 | 340 | 9.7 | 16.1 | 0.00 | 0.00 | 0.00 | 47 | 1033.4 |
| 20260509082218 | 15 | 355 | 6.4 | 6.4 | 0.00 | 0.00 | 0.00 | 48 | 1033.0 |
| 20260509081715 | 15 | 33 | 6.4 | 6.4 | 0.00 | 0.00 | 0.00 | 48 | 1032.9 |
| 20260509081212 | 15 | 357 | 9.7 | 12.9 | 0.00 | 0.00 | 0.00 | 48 | 1033.1 |
| 20260509080710 | 15 | 342 | 8.0 | 11.3 | 0.00 | 0.00 | 0.00 | 48 | 1033.3 |
| 20260509080208 | 15 | 2 | 6.4 | 6.4 | 0.00 | 0.00 | 0.00 | 49 | 1033.1 |
| 20260509075706 | 14 | 358 | 8.0 | 11.3 | 0.00 | 0.00 | 0.00 | 49 | 1033.5 |
| 20260509075203 | 15 | 355 | 9.7 | 12.9 | 0.00 | 0.00 | 0.00 | 49 | 1033.3 |
| 20260509074700 | 14 | 10 | 8.0 | 9.7 | 0.00 | 0.00 | 0.00 | 49 | 1033.6 |
| 20260509074156 | 13 | 347 | 4.8 | 6.4 | 0.00 | 0.00 | 0.00 | 51 | 1033.4 |
| 20260509073653 | 13 | 32 | 9.7 | 12.9 | 0.00 | 0.00 | 0.00 | 52 | 1033.3 |
| 20260509073149 | 13 | 340 | 4.8 | 6.4 | 0.00 | 0.00 | 0.00 | 54 | 1033.4 |
| 20260509072646 | 13 | 40 | 8.0 | 9.7 | 0.00 | 0.00 | 0.00 | 55 | 1033.3 |
| 20260509072143 | 13 | 319 | 6.4 | 6.4 | 0.00 | 0.00 | 0.00 | 56 | 1033.4 |
| 20260509071640 | 13 | 34 | 3.2 | 3.2 | 0.00 | 0.00 | 0.00 | 56 | 1033.3 |
| 20260509071137 | 13 | 20 | 3.2 | 3.2 | 0.00 | 0.00 | 0.00 | 57 | 1033.0 |
| 20260509070634 | 13 | 12 | 8.0 | 9.7 | 0.00 | 0.00 | 0.00 | 57 | 1033.1 |
| 20260509070130 | 13 | 25 | 8.0 | 11.3 | 0.00 | 0.00 | 0.00 | 56 | 1032.8 |
| 20260509065625 | 13 | 22 | 6.4 | 9.7 | 0.00 | 0.00 | 0.00 | 56 | 1032.8 |
| 20260509065116 | 13 | 34 | 6.4 | 6.4 | 0.00 | 0.00 | 0.00 | 56 | 1032.9 |
| 20260509064614 | 13 | 30 | 3.2 | 3.2 | 0.00 | 0.00 | 0.00 | 63 | 1032.6 |
| 20260509064112 | 13 | 214 | 1.6 | 1.6 | 0.00 | 0.00 | 0.00 | 61 | 1032.3 |
| 20260509063608 | 13 | 1 | 1.6 | 3.2 | 0.00 | 0.00 | 0.00 | 60 | 1032.3 |
| 20260509063105 | 12 | 48 | 4.8 | 6.4 | 0.00 | 0.00 | 0.00 | 62 | 1032.2 |
| 20260509062602 | 11 | 192 | 0.0 | 0.0 | 0.00 | 0.00 | 0.00 | 65 | 1032.2 |
| 20260509062059 | 11 | 208 | 0.0 | 0.0 | 0.00 | 0.00 | 0.00 | 66 | 1032.0 |
| 20260509061556 | 11 | 196 | 1.6 | 1.6 | 0.00 | 0.00 | 0.00 | 67 | 1032.2 |
| 20260509061053 | 10 | 215 | 0.0 | 1.6 | 0.00 | 0.00 | 0.00 | 67 | 1032.3 |
| 20260509060551 | 10 | 229 | 0.0 | 0.0 | 0.00 | 0.00 | 0.00 | 69 | 1032.1 |
| 20260509060046 | 10 | 180 | 1.6 | 1.6 | 0.00 | 0.00 | 0.00 | 70 | 1032.2 |
| 20260509055542 | 9 | 195 | 1.6 | 1.6 | 0.00 | 0.00 | 0.00 | 71 | 1032.1 |
| 20260509055038 | 9 | 180 | 1.6 | 3.2 | 0.00 | 0.00 | 0.00 | 72 | 1032.1 |
| 20260509054535 | 9 | 213 | 0.0 | 0.0 | 0.00 | 0.00 | 0.00 | 72 | 1032.0 |
| 20260509054033 | 9 | 220 | 1.6 | 1.6 | 0.00 | 0.00 | 0.00 | 73 | 1032.0 |
| 20260509053532 | 8 | 192 | 0.0 | 0.0 | 0.00 | 0.00 | 0.00 | 74 | 1031.6 |
| 20260509053028 | 8 | 216 | 0.0 | 0.0 | 0.00 | 0.00 | 0.00 | 75 | 1031.4 |
| 20260509052526 | 8 | 220 | 0.0 | 0.0 | 0.00 | 0.00 | 0.00 | 76 | 1031.3 |
| 20260509052024 | 8 | 206 | 0.0 | 0.0 | 0.00 | 0.00 | 0.00 | 77 | 1031.5 |
| 20260509051521 | 7 | 210 | 0.0 | 0.0 | 0.00 | 0.00 | 0.00 | 78 | 1031.4 |
| 20260509051012 | 7 | 205 | 0.0 | 1.6 | 0.00 | 0.00 | 0.00 | 80 | 1031.3 |
| 20260509050509 | 6 | 207 | 0.0 | 0.0 | 0.00 | 0.00 | 0.00 | 82 | 1031.2 |
| 20260509050006 | 6 | 211 | 0.0 | 0.0 | 0.00 | 0.00 | 0.00 | 84 | 1031.1 |
| 20260509045503 | 6 | 212 | 0.0 | 0.0 | 0.00 | 0.00 | 0.00 | 86 | 1031.1 |
| 20260509045000 | 5 | 233 | 0.0 | 0.0 | 0.00 | 0.00 | 0.00 | 89 | 1031.2 |
| 20260509044457 | 5 | 212 | 0.0 | 0.0 | 0.00 | 0.00 | 0.00 | 90 | 1031.2 |
| 20260509043954 | 4 | 221 | 0.0 | 0.0 | 0.00 | 0.00 | 0.00 | 90 | 1031.2 |
| 20260509043450 | 4 | 226 | 0.0 | 0.0 | 0.00 | 0.00 | 0.00 | 90 | 1031.2 |
| 20260509042946 | 5 | 223 | 0.0 | 0.0 | 0.00 | 0.00 | 0.00 | 90 | 1031.2 |
| 20260509042443 | 5 | 233 | 0.0 | 0.0 | 0.00 | 0.00 | 0.00 | 90 | 1031.1 |
| 20260509041939 | 4 | 223 | 0.0 | 0.0 | 0.00 | 0.00 | 0.00 | 90 | 1031.1 |
| 20260509041436 | 4 | 201 | 0.0 | 0.0 | 0.00 | 0.00 | 0.00 | 91 | 1030.8 |
| 20260509040934 | 4 | 245 | 0.0 | 0.0 | 0.00 | 0.00 | 0.00 | 91 | 1030.9 |
| 20260509040432 | 4 | 242 | 0.0 | 0.0 | 0.00 | 0.00 | 0.00 | 91 | 1030.8 |
| 20260509035928 | 4 | 232 | 0.0 | 0.0 | 0.00 | 0.00 | 0.00 | 91 | 1031.1 |
| 20260509035425 | 4 | 232 | 0.0 | 0.0 | 0.00 | 0.00 | 0.00 | 91 | 1030.9 |
| 20260509034922 | 4 | 233 | 0.0 | 0.0 | 0.00 | 0.00 | 0.00 | 91 | 1030.8 |
| 20260509034420 | 4 | 232 | 0.0 | 0.0 | 0.00 | 0.00 | 0.00 | 91 | 1030.7 |
| 20260509033917 | 4 | 233 | 0.0 | 0.0 | 0.00 | 0.00 | 0.00 | 91 | 1031.2 |
| 20260509033414 | 4 | 233 | 0.0 | 0.0 | 0.00 | 0.00 | 0.00 | 90 | 1030.8 |
| 20260509032910 | 4 | 232 | 0.0 | 0.0 | 0.00 | 0.00 | 0.00 | 90 | 1030.8 |
| 20260509032408 | 4 | 232 | 0.0 | 0.0 | 0.00 | 0.00 | 0.00 | 90 | 1030.9 |
| 20260509031906 | 4 | 232 | 0.0 | 0.0 | 0.00 | 0.00 | 0.00 | 90 | 1030.8 |
| 20260509031403 | 5 | 240 | 0.0 | 0.0 | 0.00 | 0.00 | 0.00 | 90 | 1030.7 |
| 20260509030900 | 4 | 234 | 0.0 | 0.0 | 0.00 | 0.00 | 0.00 | 91 | 1030.8 |
| 20260509030358 | 4 | 226 | 0.0 | 0.0 | 0.00 | 0.00 | 0.00 | 91 | 1030.8 |
| 20260509025855 | 4 | 230 | 0.0 | 0.0 | 0.00 | 0.00 | 0.00 | 91 | 1030.8 |
| 20260509025349 | 4 | 228 | 0.0 | 0.0 | 0.00 | 0.00 | 0.00 | 91 | 1030.8 |
| 20260509024845 | 4 | 227 | 0.0 | 0.0 | 0.00 | 0.00 | 0.00 | 91 | 1030.7 |
| 20260509024342 | 4 | 223 | 0.0 | 0.0 | 0.00 | 0.00 | 0.00 | 90 | 1030.8 |
| 20260509023839 | 5 | 228 | 0.0 | 0.0 | 0.00 | 0.00 | 0.00 | 90 | 1030.7 |
| 20260509023336 | 5 | 225 | 0.0 | 0.0 | 0.00 | 0.00 | 0.00 | 89 | 1030.7 |
| 20260509022827 | 5 | 226 | 0.0 | 0.0 | 0.00 | 0.00 | 0.00 | 89 | 1030.8 |
| 20260509022324 | 5 | 226 | 0.0 | 0.0 | 0.00 | 0.00 | 0.00 | 89 | 1030.8 |
| 20260509021821 | 5 | 225 | 0.0 | 0.0 | 0.00 | 0.00 | 0.00 | 88 | 1030.7 |
| 20260509021318 | 5 | 225 | 0.0 | 0.0 | 0.00 | 0.00 | 0.00 | 88 | 1030.8 |
| 20260509020816 | 5 | 231 | 0.0 | 0.0 | 0.00 | 0.00 | 0.00 | 88 | 1030.8 |
| 20260509020314 | 5 | 230 | 0.0 | 0.0 | 0.00 | 0.00 | 0.00 | 88 | 1031.1 |
| 20260509015811 | 5 | 225 | 0.0 | 0.0 | 0.00 | 0.00 | 0.00 | 88 | 1030.8 |
| 20260509015309 | 5 | 232 | 0.0 | 0.0 | 0.00 | 0.00 | 0.00 | 88 | 1030.9 |
| 20260509014805 | 5 | 235 | 0.0 | 0.0 | 0.00 | 0.00 | 0.00 | 88 | 1030.7 |
| 20260509014303 | 5 | 233 | 0.0 | 0.0 | 0.00 | 0.00 | 0.00 | 88 | 1030.9 |
| 20260509013759 | 5 | 228 | 0.0 | 0.0 | 0.00 | 0.00 | 0.00 | 88 | 1030.9 |
| 20260509013255 | 5 | 226 | 0.0 | 0.0 | 0.00 | 0.00 | 0.00 | 88 | 1030.9 |
| 20260509012751 | 5 | 225 | 0.0 | 0.0 | 0.00 | 0.00 | 0.00 | 88 | 1030.8 |
| 20260509012248 | 5 | 233 | 0.0 | 0.0 | 0.00 | 0.00 | 0.00 | 89 | 1030.9 |
| 20260509011745 | 5 | 227 | 0.0 | 0.0 | 0.00 | 0.00 | 0.00 | 89 | 1030.9 |
| 20260509011243 | 5 | 232 | 0.0 | 0.0 | 0.00 | 0.00 | 0.00 | 89 | 1031.1 |
| 20260509010740 | 5 | 230 | 0.0 | 0.0 | 0.00 | 0.00 | 0.00 | 89 | 1030.8 |
| 20260509010236 | 5 | 223 | 0.0 | 0.0 | 0.00 | 0.00 | 0.00 | 89 | 1030.8 |
| 20260509005734 | 5 | 225 | 0.0 | 0.0 | 0.00 | 0.00 | 0.00 | 89 | 1030.7 |
| 20260509005231 | 5 | 223 | 0.0 | 0.0 | 0.00 | 0.00 | 0.00 | 89 | 1030.8 |
| 20260509004725 | 5 | 235 | 0.0 | 0.0 | 0.00 | 0.00 | 0.00 | 89 | 1030.8 |
| 20260509004224 | 5 | 223 | 0.0 | 0.0 | 0.00 | 0.00 | 0.00 | 88 | 1030.8 |
| 20260509003722 | 5 | 220 | 0.0 | 0.0 | 0.00 | 0.00 | 0.00 | 88 | 1030.9 |
| 20260509003219 | 5 | 224 | 0.0 | 0.0 | 0.00 | 0.00 | 0.00 | 87 | 1031.1 |
| 20260509002716 | 5 | 223 | 0.0 | 0.0 | 0.00 | 0.00 | 0.00 | 87 | 1031.1 |
| 20260509002214 | 6 | 236 | 0.0 | 0.0 | 0.00 | 0.00 | 0.00 | 87 | 1031.2 |
| 20260509001711 | 6 | 225 | 0.0 | 0.0 | 0.00 | 0.00 | 0.00 | 87 | 1030.9 |
| 20260509001207 | 6 | 233 | 0.0 | 0.0 | 0.00 | 0.00 | 0.00 | 87 | 1030.9 |
| 20260509000705 | 5 | 223 | 0.0 | 0.0 | 0.00 | 0.00 | 0.00 | 86 | 1031.2 |